Location: Unspecified
(0.0000°N, 0.0000°E)
Time: 22:17:31
(UTC+00:00)

ISS - Pass Details

Date: 20 October 2017
Orbit: 401 x 408 km, 51.6° (Epoch: 18 October)

Event Time Altitude Azimuth Distance (km) Brightness Sun altitude
Rises 18:32:55 0° 332° (NNW) 2,306 0.2 -11.8°
Reaches altitude 10° 18:35:01 10° 337° (NNW) 1,451 -0.9 -12.4°
Maximum altitude 18:38:12 53° 55° (NE) 503 -3.7 -13.1°
Enters shadow 18:40:49 14° 130° (SE) 1,227 -1.8 -13.8°
